�N����,����,�~����,�C��,���x,�C��,����,���ϕ���,�ő�u�ԕ���,�ő厞����,���˗�,�I�_���x,�n�����x,�ő啗���N��,DTYPE
"20/03/06","00:10",0.0,3.0,86.2,1014.7,294.5,2.1,3.4,307.3,0.00,1.0,7.5,"00:09:46",1
"20/03/06","00:20",0.0,3.3,85.8,1014.5,307.4,2.6,3.7,308.1,0.00,1.2,7.6,"00:11:24",1
"20/03/06","00:30",0.0,3.2,85.4,1014.7,294.3,2.0,2.9,321.6,0.00,1.0,7.6,"00:21:36",1
"20/03/06","00:40",0.0,3.3,85.1,1014.9,283.7,1.7,2.9,307.9,0.00,1.1,7.4,"00:30:22",1
"20/03/06","00:50",0.0,3.4,84.7,1014.5,276.8,1.5,2.2,269.6,0.00,1.1,7.7,"00:47:12",1
"20/03/06","01:00",0.0,3.4,84.4,1014.5,288.9,1.6,2.2,269.4,0.00,1.1,7.6,"00:53:32",1
"20/03/06","01:10",0.0,3.4,84.2,1014.5,338.8,1.7,2.5,354.0,0.00,1.0,7.4,"01:06:12",1
"20/03/06","01:20",0.0,3.3,84.5,1014.7,322.0,2.3,4.7,340.7,0.00,1.0,7.6,"01:19:00",1
"20/03/06","01:30",0.0,3.3,84.7,1014.5,316.1,1.0,1.6,328.7,0.00,1.0,7.4,"01:28:52",1
"20/03/06","01:40",0.0,3.4,85.0,1014.7,339.8,1.5,1.9,337.0,0.00,1.2,7.4,"01:34:10",1
"20/03/06","01:50",0.0,3.5,85.2,1014.7,327.1,1.7,2.9,338.8,0.00,1.3,7.6,"01:46:28",1
"20/03/06","02:00",0.0,3.4,85.5,1014.9,328.7,1.7,2.7,334.1,0.00,1.2,7.5,"01:50:54",1
"20/03/06","02:10",0.0,3.5,85.8,1014.9,308.2,1.5,2.2,320.8,0.00,1.4,7.4,"02:08:32",1
"20/03/06","02:20",0.0,3.4,86.0,1014.7,319.2,1.7,2.2,326.9,0.00,1.3,7.4,"02:10:32",1
"20/03/06","02:30",0.0,3.5,86.4,1014.7,327.6,1.1,2.0,310.5,0.00,1.5,7.6,"02:26:28",1
"20/03/06","02:40",0.0,3.5,86.7,1014.7,332.9,1.7,3.9,336.5,0.00,1.5,7.5,"02:33:42",1
"20/03/06","02:50",0.0,3.5,87.1,1014.9,291.7,1.7,3.2,275.1,0.00,1.6,7.4,"02:44:16",1
"20/03/06","03:00",0.0,3.7,87.0,1014.9,326.6,2.0,2.9,316.6,0.00,1.8,7.2,"02:52:48",1
"20/03/06","03:10",0.0,3.7,86.9,1014.7,303.3,1.7,2.8,325.7,0.00,1.8,7.2,"03:02:16",1
"20/03/06","03:20",0.0,3.7,87.0,1014.7,327.2,1.2,2.0,317.4,0.00,1.8,7.4,"03:11:20",1
"20/03/06","03:30",0.0,3.6,87.0,1014.7,341.8,1.5,2.4,327.9,0.00,1.7,7.4,"03:24:00",1
"20/03/06","03:40",0.0,3.6,87.0,1015.2,312.5,1.3,2.1,326.8,0.00,1.7,7.6,"03:30:16",1
"20/03/06","03:50",0.0,3.7,86.9,1014.9,307.3,0.7,1.7,311.7,0.00,1.8,7.3,"03:48:00",1
"20/03/06","04:00",0.0,3.5,86.7,1014.7,317.7,1.3,3.5,340.0,0.00,1.5,7.2,"03:58:24",1
"20/03/06","04:10",0.0,3.6,86.5,1014.7,308.4,1.2,1.9,321.9,0.00,1.6,7.3,"04:02:00",1
"20/03/06","04:20",0.0,3.7,86.2,1014.5,317.1,1.1,1.9,323.7,0.00,1.7,7.5,"04:10:32",1
"20/03/06","04:30",0.0,3.6,85.7,1014.7,279.6,0.8,2.7,307.5,0.00,1.5,7.3,"04:26:48",1
"20/03/06","04:40",0.0,3.8,85.3,1014.5,280.5,0.8,1.6,318.6,0.00,1.6,7.4,"04:31:44",1
"20/03/06","04:50",0.0,3.6,85.0,1014.9,293.4,0.6,1.2,313.1,0.00,1.4,7.2,"04:46:48",1
"20/03/06","05:00",0.0,3.6,84.8,1014.7,321.8,1.2,1.9,334.5,0.00,1.3,7.6,"04:57:12",1
"20/03/06","05:10",0.0,3.6,84.6,1014.9,337.4,1.2,2.2,340.9,0.00,1.3,7.3,"05:08:32",1
"20/03/06","05:20",0.0,3.6,84.5,1014.7,323.8,1.2,2.1,307.2,0.00,1.3,7.5,"05:11:20",1
"20/03/06","05:30",0.0,3.5,84.4,1015.4,331.7,1.3,1.8,330.4,0.00,1.2,7.4,"05:20:16",1
"20/03/06","05:40",0.0,3.5,84.3,1015.4,332.0,1.2,1.8,344.2,0.00,1.1,7.3,"05:36:16",1
"20/03/06","05:50",0.0,3.5,84.0,1015.4,315.5,1.1,1.9,326.9,0.00,1.1,7.3,"05:49:12",1
"20/03/06","06:00",0.0,3.5,83.8,1015.2,323.1,1.3,3.1,339.5,0.00,1.1,7.3,"05:51:12",1
"20/03/06","06:10",0.0,3.5,83.5,1015.4,327.4,1.8,3.2,315.7,0.00,1.0,7.3,"06:08:40",1
"20/03/06","06:20",0.0,3.7,82.9,1015.6,314.9,2.1,3.9,332.1,0.00,1.1,7.4,"06:14:40",1
"20/03/06","06:30",0.0,3.7,82.1,1015.9,308.2,2.0,3.1,312.7,0.00,1.0,7.1,"06:22:00",1
"20/03/06","06:40",0.0,3.4,81.5,1015.6,296.8,1.0,1.9,339.9,0.00,0.6,7.2,"06:33:04",1
"20/03/06","06:50",0.0,2.8,81.6,1015.6,309.6,1.2,2.8,335.9,0.00,0.0,7.2,"06:40:34",1
"20/03/06","07:00",0.0,2.6,82.2,1015.6,322.7,1.1,2.5,344.3,0.00,-0.1,7.3,"06:51:20",1
"20/03/06","07:10",0.0,2.7,83.1,1015.6,321.1,1.0,2.2,311.6,0.00,0.2,7.2,"07:09:28",1
"20/03/06","07:20",0.0,2.5,83.7,1015.9,312.5,1.6,2.2,326.1,0.00,0.1,7.1,"07:10:16",1
"20/03/06","07:30",0.0,2.8,84.5,1015.9,322.4,0.7,1.7,294.1,0.00,0.5,7.1,"07:21:20",1
"20/03/06","07:40",0.0,3.0,84.9,1015.6,276.9,1.0,1.4,307.3,0.00,0.8,7.2,"07:31:12",1
"20/03/06","07:50",0.0,3.2,85.4,1016.1,172.6,0.2,0.6,156.3,0.00,1.0,7.1,"07:43:04",1
"20/03/06","08:00",0.0,3.6,85.7,1016.1,300.7,0.5,0.9,292.5,0.00,1.5,7.2,"07:51:44",1
"20/03/06","08:10",0.0,3.8,85.5,1015.9,290.3,1.6,4.0,330.4,0.01,1.6,7.1,"08:09:36",1
"20/03/06","08:20",0.0,4.2,84.6,1016.8,311.5,2.7,4.2,316.4,0.03,1.9,7.2,"08:14:08",1
"20/03/06","08:30",0.0,4.7,83.2,1016.8,302.6,2.3,4.1,316.6,0.04,2.1,6.9,"08:21:20",1
"20/03/06","08:40",0.0,4.9,81.6,1016.8,313.4,2.2,3.6,337.7,0.06,2.1,7.2,"08:31:12",1
"20/03/06","08:50",0.0,5.3,80.0,1016.8,312.3,2.0,3.3,328.2,0.07,2.2,7.3,"08:40:56",1
"20/03/06","09:00",0.0,5.6,77.5,1017.3,315.9,2.5,3.4,316.4,0.08,2.0,7.2,"08:55:52",1
"20/03/06","09:10",0.0,6.0,74.8,1017.3,308.7,2.1,3.3,319.4,0.09,1.9,7.4,"09:03:20",1
"20/03/06","09:20",0.0,6.4,72.7,1017.3,287.0,1.6,2.1,326.7,0.10,1.9,7.6,"09:17:12",1
"20/03/06","09:30",0.0,6.6,70.6,1017.5,299.9,2.1,3.9,320.2,0.12,1.7,7.6,"09:28:56",1
"20/03/06","09:40",0.0,6.9,69.1,1017.8,288.8,2.2,4.3,313.4,0.16,1.7,7.3,"09:38:00",1
"20/03/06","09:50",0.0,7.2,67.2,1018.0,308.1,3.5,7.9,338.7,0.22,1.6,7.7,"09:48:08",1
"20/03/06","10:00",0.0,8.1,64.3,1017.5,336.3,3.2,6.5,341.9,0.28,1.8,7.7,"09:50:48",1
"20/03/06","10:10",0.0,8.5,61.6,1017.8,342.6,2.8,6.2,342.9,0.27,1.6,7.9,"10:06:40",1
"20/03/06","10:20",0.0,8.9,59.7,1018.0,331.5,3.5,7.8,331.4,0.42,1.5,8.2,"10:10:48",1
"20/03/06","10:30",0.2,8.8,57.0,1018.0,342.1,3.6,8.1,325.0,0.29,0.8,8.3,"10:20:16",1
"20/03/06","10:40",0.0,8.6,55.9,1017.8,342.7,3.0,6.3,334.7,0.27,0.3,8.3,"10:38:08",1
"20/03/06","10:50",0.0,8.7,55.0,1017.8,307.6,3.6,7.2,326.6,0.30,0.2,8.5,"10:45:04",1
"20/03/06","11:00",0.0,9.0,54.5,1017.5,330.8,2.7,5.0,320.9,0.37,0.4,8.7,"10:57:44",1
"20/03/06","11:10",0.0,9.6,53.5,1017.8,331.0,2.7,5.8,336.6,0.33,0.7,8.6,"11:09:52",1
"20/03/06","11:20",0.0,9.6,52.5,1017.5,323.3,4.0,8.2,333.3,0.42,0.4,9.0,"11:18:10",1
"20/03/06","11:30",0.0,10.2,52.0,1017.1,352.1,2.7,7.2,332.0,0.49,0.8,9.2,"11:20:40",1
"20/03/06","11:40",0.0,10.4,49.2,1017.3,358.5,2.3,6.5,346.2,0.53,0.2,9.3,"11:32:40",1
"20/03/06","11:50",0.0,9.7,49.9,1017.5,346.4,3.7,7.5,345.9,0.38,-0.2,9.5,"11:43:04",1
"20/03/06","12:00",0.0,10.1,50.1,1017.5,320.2,3.1,6.5,329.4,0.46,0.2,9.7,"11:52:00",1
"20/03/06","12:10",0.0,9.9,49.9,1017.3,342.0,3.7,7.5,341.7,0.42,0.0,9.8,"12:05:28",1
"20/03/06","12:20",0.0,10.5,47.7,1016.4,318.0,2.3,7.1,318.0,0.44,-0.1,10.1,"12:19:44",1
"20/03/06","12:30",0.0,10.9,49.6,1016.8,299.6,3.4,6.4,319.7,0.50,0.8,10.2,"12:22:00",1
"20/03/06","12:40",0.0,11.2,48.1,1016.8,231.4,1.6,3.6,237.0,0.47,0.7,10.5,"12:32:56",1
"20/03/06","12:50",0.0,10.6,47.9,1016.8,325.0,2.3,4.9,327.3,0.26,0.1,10.6,"12:49:28",1
"20/03/06","13:00",0.0,11.2,48.2,1016.4,349.7,2.7,5.7,347.6,0.55,0.7,10.6,"12:54:40",1
"20/03/06","13:10",0.0,10.4,49.7,1016.4,326.5,3.5,7.3,333.8,0.25,0.4,10.7,"13:05:12",1
"20/03/06","13:20",0.0,10.7,49.6,1016.1,350.3,2.3,5.8,324.0,0.36,0.6,10.8,"13:11:44",1
"20/03/06","13:30",0.0,10.8,49.1,1015.9,350.0,2.5,5.1,332.9,0.36,0.6,10.9,"13:25:12",1
"20/03/06","13:40",0.0,10.8,51.3,1015.9,351.4,2.0,4.4,351.9,0.32,1.2,11.2,"13:32:48",1
"20/03/06","13:50",0.0,11.4,49.0,1016.4,353.7,1.7,4.5,1.2,0.40,1.1,11.1,"13:41:36",1
"20/03/06","14:00",0.0,11.2,50.9,1015.6,357.5,2.2,5.2,333.4,0.41,1.5,11.1,"13:58:48",1
"20/03/06","14:10",0.0,11.4,49.2,1015.6,353.7,2.7,8.2,333.0,0.47,1.2,11.4,"14:05:20",1
"20/03/06","14:20",0.0,11.0,51.1,1015.6,342.4,3.4,6.7,347.5,0.34,1.3,11.4,"14:16:48",1
"20/03/06","14:30",0.0,11.6,49.4,1015.4,347.9,3.4,8.0,337.0,0.52,1.4,11.5,"14:28:16",1
"20/03/06","14:40",0.0,11.0,47.1,1015.4,12.8,2.3,4.0,3.6,0.28,0.2,11.6,"14:31:28",1
"20/03/06","14:50",0.0,10.9,49.0,1015.2,11.0,1.6,4.4,334.3,0.27,0.7,11.6,"14:42:16",1
"20/03/06","15:00",0.0,12.0,47.7,1015.4,8.6,1.6,4.2,51.8,0.51,1.3,11.7,"14:56:08",1
"20/03/06","15:10",0.0,11.7,47.7,1015.4,357.8,3.0,7.8,345.9,0.39,1.0,11.7,"15:04:56",1
"20/03/06","15:20",0.0,11.6,47.0,1015.4,0.6,2.5,4.9,3.7,0.44,0.7,11.8,"15:10:56",1
"20/03/06","15:30",0.0,11.8,47.2,1015.4,353.0,2.7,6.0,355.9,0.41,1.0,11.8,"15:29:36",1
"20/03/06","15:40",0.0,11.7,48.0,1015.6,2.6,2.5,5.7,353.2,0.38,1.1,11.9,"15:30:08",1
"20/03/06","15:50",0.0,11.4,49.2,1015.4,343.0,4.0,7.5,325.6,0.35,1.2,11.8,"15:45:52",1
"20/03/06","16:00",0.0,11.1,49.8,1015.2,337.3,4.5,8.1,346.1,0.32,1.1,12.0,"15:54:24",1
"20/03/06","16:10",0.0,11.1,48.4,1015.9,342.5,3.6,7.0,333.6,0.30,0.7,11.9,"16:00:24",1
"20/03/06","16:20",0.0,11.1,49.5,1015.4,334.6,4.1,7.4,321.7,0.27,1.0,12.1,"16:15:04",1
"20/03/06","16:30",0.0,10.6,49.9,1015.6,334.9,4.6,7.9,327.3,0.24,0.6,11.9,"16:27:20",1
"20/03/06","16:40",0.0,10.6,50.4,1015.6,334.4,3.6,6.7,326.5,0.21,0.8,11.9,"16:32:16",1
"20/03/06","16:50",0.0,10.5,50.4,1015.9,333.2,3.7,7.9,336.3,0.18,0.7,11.8,"16:41:12",1
"20/03/06","17:00",0.0,10.2,50.4,1015.9,337.5,4.1,7.2,330.2,0.15,0.4,11.7,"16:53:44",1
"20/03/06","17:10",0.0,10.0,51.0,1015.6,339.1,3.7,8.1,337.4,0.13,0.4,11.7,"17:04:46",1
"20/03/06","17:20",0.0,9.8,51.0,1015.9,340.1,3.5,6.0,338.5,0.10,0.2,11.7,"17:12:28",1
"20/03/06","17:30",0.0,9.6,51.5,1015.9,334.2,4.1,8.9,333.1,0.08,0.1,11.7,"17:20:48",1
"20/03/06","17:40",0.0,9.3,51.3,1015.9,331.5,3.5,5.7,329.3,0.05,-0.2,11.4,"17:32:24",1
"20/03/06","17:50",0.0,9.1,52.0,1015.9,334.3,2.8,5.2,340.9,0.03,-0.2,11.3,"17:46:52",1
"20/03/06","18:00",0.0,8.6,51.5,1016.1,343.3,3.4,5.7,345.4,0.01,-0.8,11.2,"17:52:16",1
"20/03/06","18:10",0.0,8.1,53.0,1015.9,338.5,3.7,7.5,345.0,0.00,-0.9,11.0,"18:04:00",1
"20/03/06","18:20",0.0,7.8,55.2,1015.9,334.2,2.8,5.1,332.0,0.00,-0.6,10.8,"18:11:20",1
"20/03/06","18:30",0.0,7.4,57.4,1015.6,332.0,2.2,3.3,331.5,0.00,-0.4,10.6,"18:26:24",1
"20/03/06","18:40",0.0,7.2,58.9,1016.1,340.4,2.0,3.2,325.7,0.00,-0.3,10.5,"18:38:24",1
"20/03/06","18:50",0.0,7.1,59.8,1015.9,346.2,1.7,3.9,340.6,0.00,-0.1,10.5,"18:46:48",1
"20/03/06","19:00",0.0,7.0,60.9,1016.4,0.2,1.8,5.2,29.0,0.00,0.0,10.3,"18:59:36",1
"20/03/06","19:10",0.0,6.6,62.2,1016.4,348.6,2.6,5.8,354.2,0.00,-0.1,10.3,"19:07:32",1
"20/03/06","19:20",0.0,6.2,63.8,1016.4,338.6,2.7,4.5,330.3,0.00,-0.1,10.1,"19:17:12",1
"20/03/06","19:30",0.0,5.9,65.7,1016.8,332.6,3.6,5.9,342.8,0.00,0.0,9.8,"19:24:16",1
"20/03/06","19:40",0.0,5.6,66.6,1016.6,334.5,2.8,4.3,322.3,0.00,-0.1,9.9,"19:31:36",1
"20/03/06","19:50",0.0,5.3,67.8,1016.8,331.0,2.8,5.6,334.8,0.00,-0.1,9.7,"19:42:56",1
"20/03/06","20:00",0.0,4.9,69.0,1016.8,326.3,3.0,4.8,339.5,0.00,-0.3,9.8,"19:53:04",1
"20/03/06","20:10",0.0,4.6,70.2,1016.8,327.1,2.7,4.1,333.2,0.00,-0.3,9.7,"20:00:40",1
"20/03/06","20:20",0.0,4.5,70.9,1016.6,329.1,2.6,4.9,336.7,0.00,-0.3,9.5,"20:19:04",1
"20/03/06","20:30",0.0,4.7,71.0,1016.8,328.4,3.4,5.2,338.2,0.00,-0.1,9.5,"20:22:00",1
"20/03/06","20:40",0.0,4.6,70.9,1016.4,323.9,2.5,5.1,335.5,0.00,-0.2,9.2,"20:30:16",1
"20/03/06","20:50",0.0,4.5,70.7,1016.4,327.2,1.8,3.2,325.4,0.00,-0.3,9.2,"20:43:12",1
"20/03/06","21:00",0.0,4.2,71.1,1016.6,267.6,1.1,1.8,269.7,0.00,-0.5,9.0,"20:51:36",1
"20/03/06","21:10",0.0,3.8,71.9,1016.4,286.7,1.6,2.1,312.5,0.00,-0.8,9.0,"21:02:24",1
"20/03/06","21:20",0.0,3.4,72.4,1016.4,296.9,1.2,1.7,302.4,0.00,-1.0,8.7,"21:15:28",1
"20/03/06","21:30",0.0,3.2,73.3,1016.4,284.1,2.0,2.5,272.9,0.00,-1.1,8.8,"21:26:40",1
"20/03/06","21:40",0.0,3.0,74.1,1016.4,286.3,1.7,2.4,304.4,0.00,-1.1,8.7,"21:38:56",1
"20/03/06","21:50",0.0,3.0,75.0,1016.1,276.0,2.1,3.1,270.0,0.00,-1.0,8.6,"21:47:36",1
"20/03/06","22:00",0.0,2.6,75.8,1016.1,306.9,2.0,2.6,324.1,0.00,-1.2,8.5,"21:53:52",1
"20/03/06","22:10",0.0,2.3,76.7,1016.1,299.5,1.8,2.8,316.0,0.00,-1.3,8.4,"22:00:24",1
"20/03/06","22:20",0.0,2.2,77.6,1016.1,304.3,2.0,2.5,322.7,0.00,-1.3,8.3,"22:15:44",1
"20/03/06","22:30",0.0,2.0,78.5,1016.4,309.9,2.5,3.2,317.1,0.00,-1.3,8.2,"22:25:36",1
"20/03/06","22:40",0.0,1.9,79.4,1016.4,299.2,2.3,3.5,327.1,0.00,-1.2,8.4,"22:31:36",1
"20/03/06","22:50",0.0,1.7,80.4,1015.9,293.0,2.2,3.2,309.8,0.00,-1.3,7.9,"22:40:16",1
"20/03/06","23:00",0.0,1.7,81.3,1016.4,296.1,2.1,2.6,300.5,0.00,-1.1,8.0,"22:50:08",1
"20/03/06","23:10",0.0,1.8,82.5,1016.4,321.6,2.7,5.1,332.8,0.00,-0.8,8.0,"23:09:28",1
"20/03/06","23:20",0.0,2.4,82.9,1016.4,320.8,3.1,5.0,321.1,0.00,-0.2,7.9,"23:14:16",1
"20/03/06","23:30",0.0,2.3,83.1,1016.6,312.7,2.7,3.7,310.9,0.00,-0.2,8.0,"23:22:48",1
"20/03/06","23:40",0.0,2.1,83.1,1016.6,320.0,2.7,3.6,330.7,0.00,-0.4,7.7,"23:33:28",1
"20/03/06","23:50",0.0,1.9,83.5,1016.4,327.7,2.6,3.7,335.8,0.00,-0.6,7.9,"23:46:00",1
"20/03/06","24:00",0.0,2.0,83.7,1016.6,323.6,3.2,4.8,323.6,0.00,-0.4,7.8,"23:53:44",1
